TimeHST,TemperatureF,Dew PointF,Humidity,Sea Level PressureIn,VisibilityMPH,Wind Direction,Wind SpeedMPH,Gust SpeedMPH,PrecipitationIn,Events,Conditions,WindDirDegrees,DateUTC
12:53 AM,78.1,66.0,66,29.97,10.0,East,5.8,-,N/A,,Clear,100,2013-08-18 10:53:00
1:53 AM,78.1,66.9,68,29.96,10.0,SE,3.5,-,N/A,,Scattered Clouds,130,2013-08-18 11:53:00
2:53 AM,77.0,66.9,71,29.95,10.0,ESE,5.8,-,N/A,,Partly Cloudy,120,2013-08-18 12:53:00
3:53 AM,77.0,66.0,69,29.94,10.0,ESE,4.6,-,N/A,,Clear,110,2013-08-18 13:53:00
4:53 AM,75.9,66.0,71,29.94,10.0,East,5.8,-,N/A,,Clear,90,2013-08-18 14:53:00
5:53 AM,75.9,66.0,71,29.96,10.0,East,3.5,-,N/A,,Partly Cloudy,90,2013-08-18 15:53:00
6:53 AM,77.0,64.9,66,29.96,10.0,East,4.6,-,N/A,,Clear,80,2013-08-18 16:53:00
7:53 AM,81.0,66.9,62,29.98,10.0,Variable,4.6,-,N/A,,Clear,0,2013-08-18 17:53:00
8:53 AM,84.0,64.9,53,29.98,10.0,SSW,8.1,-,N/A,,Clear,210,2013-08-18 18:53:00
9:53 AM,84.0,66.9,56,29.99,10.0,South,10.4,-,N/A,,Clear,190,2013-08-18 19:53:00
10:53 AM,87.1,68.0,53,29.99,10.0,South,13.8,-,N/A,,Partly Cloudy,180,2013-08-18 20:53:00
11:53 AM,84.9,69.1,59,29.98,10.0,South,12.7,-,N/A,,Partly Cloudy,190,2013-08-18 21:53:00
12:53 PM,84.9,68.0,57,29.97,10.0,SSW,12.7,-,N/A,,Mostly Cloudy,210,2013-08-18 22:53:00
1:53 PM,86.0,68.0,55,29.94,10.0,SSW,12.7,-,N/A,,Mostly Cloudy,210,2013-08-18 23:53:00
2:53 PM,84.9,69.1,59,29.93,10.0,SW,12.7,-,N/A,,Scattered Clouds,230,2013-08-19 00:53:00
3:53 PM,84.0,64.9,53,29.93,10.0,SW,11.5,-,0.00,Rain,Light Rain,230,2013-08-19 01:53:00
4:53 PM,84.9,66.0,53,29.93,10.0,WSW,12.7,-,0.00,,Scattered Clouds,240,2013-08-19 02:53:00
5:53 PM,82.9,66.0,56,29.94,10.0,West,11.5,-,N/A,,Overcast,260,2013-08-19 03:53:00
6:53 PM,81.0,66.9,62,29.95,10.0,West,10.4,-,N/A,,Overcast,260,2013-08-19 04:53:00
7:53 PM,80.1,69.1,69,29.97,10.0,WSW,11.5,-,N/A,,Overcast,240,2013-08-19 05:53:00
8:53 PM,80.1,68.0,67,29.99,10.0,WSW,11.5,-,N/A,,Mostly Cloudy,250,2013-08-19 06:53:00
9:53 PM,79.0,69.1,72,30.00,10.0,West,12.7,-,N/A,,Partly Cloudy,260,2013-08-19 07:53:00
10:53 PM,79.0,69.1,72,30.00,10.0,West,12.7,-,N/A,,Clear,260,2013-08-19 08:53:00
11:53 PM,79.0,69.1,72,29.99,10.0,WSW,6.9,-,N/A,,Clear,250,2013-08-19 09:53:00